• Join FlightAware (Why Join?)
  • Login
  • US Flag GB Flag 
05:03 EDT


 

Airport Tracker/Info


-or-


 

Live Flight TrackerFlight Track Log ✈ TCF642 ✈ 01-Jun-2013 ✈ KEWR - KAUS

Flight Track Log - Related Links

Times and Time Zones

All times are in EDT time to prevent confusion due to time zone crossing. See the TCF642 flight status page for this flight to view local times or setup timezone preferences in your user account.

Time Position Orientation Groundspeed Altitude Reporting Facility
EDT Latitude Longitude Course Direction KTS MPH feet Rate Location/Type
17:53 40.6333 -74.1833 270° West 170 196 1,800  Level New York TRACON
17:54 40.6333 -74.2667 270° West 244 281 3,800 2,520 Climbing New York TRACON
17:55 40.6500 -74.3500 285° West 263 303 6,900 2,580 Climbing New York TRACON
17:57 40.6950 -74.5481 287° West 291 335 11,600 2,280 Climbing New York Center
17:58 40.7128 -74.6450 284° West 306 352 13,900 2,280 Climbing New York Center
17:59 40.7833 -74.9982 270° West  Level FlightAware Approximate
17:59 40.7375 -74.7725 284° West 321 369 16,300  Level New York Center
18:00 40.7606 -74.8917 284° West 327 376 18,100 1,860 Climbing New York Center
18:01 40.7833 -75.0108 284° West 337 388 20,000 1,800 Climbing New York Center
18:02 40.8039 -75.1381 282° West 342 394 21,700 1,560 Climbing New York Center
18:03 40.7825 -75.2628 257° West 350 403 23,200 1,500 Climbing New York Center
18:04 40.7586 -75.3956 257° West 366 421 24,800 1,320 Climbing New York Center
18:05 40.7139 -75.5211 245° Southwest 376 433 25,900 1,020 Climbing New York Center
18:06 40.6667 -75.6575 246° West 390 449 26,900 1,020 Climbing New York Center
18:07 40.6131 -75.7931 243° Southwest 402 463 28,000 1,020 Climbing New York Center
18:08 40.5547 -75.9364 242° Southwest 424 488 29,000 840 Climbing New York Center
18:09 40.4961 -76.0875 243° Southwest 431 496 29,800 900 Climbing New York Center
18:10 40.4483 -76.2175 244° Southwest 441 507 30,900 900 Climbing New York Center
18:11 40.3917 -76.3603 243° Southwest 441 507 31,600 540 Climbing New York Center
18:12 40.3389 -76.5058 245° Southwest 441 507 32,000 180 Climbing New York Center
18:13 40.2961 -76.6547 249° West 441 507 32,000  Level New York Center
18:14 40.2592 -76.8067 252° West 436 502 32,000  Level New York Center
18:15 40.2225 -76.9556 252° West 436 502 32,000  Level New York Center
18:16 40.1853 -77.1072 252° West 436 502 32,000  Level New York Center
18:17 40.1497 -77.2589 253° West 436 502 32,000  Level New York Center
18:18 40.1392 -77.4156 265° West 430 495 32,000  Level New York Center
18:20 40.1361 -77.7478 269° West 429 494 32,000  Level Cleveland Center
18:21 40.1317 -77.9056 268° West 435 501 32,000  Level Cleveland Center
18:22 40.1250 -78.0689 267° West 446 513 32,000  Level Cleveland Center
18:23 40.1200 -78.2239 268° West 446 513 32,000  Level Cleveland Center
18:24 40.1147 -78.3842 268° West 441 507 32,000  Level Cleveland Center
18:25 40.1114 -78.5417 268° West 441 507 32,000  Level Cleveland Center
18:26 40.1058 -78.6967 267° West 441 507 32,000  Level Cleveland Center
18:27 40.1000 -78.8569 267° West 441 507 32,000  Level Cleveland Center
18:28 40.0939 -79.0117 267° West 441 507 32,000  Level Cleveland Center
18:29 40.0875 -79.1719 267° West 441 507 32,000  Level Cleveland Center
18:30 40.0828 -79.2997 267° West 441 507 32,000  Level Cleveland Center
18:31 40.0806 -79.4733 269° West 441 507 32,000  Level Cleveland Center
18:32 40.0736 -79.6308 267° West 441 507 32,000  Level Cleveland Center
18:33 40.0664 -79.7856 267° West 441 507 32,000  Level Cleveland Center
18:34 40.0611 -79.9456 268° West 441 507 32,000  Level Cleveland Center
18:35 40.0517 -80.0975 265° West 441 507 32,000  Level Cleveland Center
18:36 40.0458 -80.2575 267° West 441 507 32,000  Level Cleveland Center
18:37 40.0378 -80.4122 266° West 441 507 32,000  Level Cleveland Center
18:38 40.0317 -80.5722 267° West 441 507 32,000  Level Cleveland Center
18:39 40.0233 -80.7267 266° West 441 507 32,000  Level Cleveland Center
18:41 40.0133 -80.9939 267° West 433 498 32,000  Level Indianapolis Center
18:42 40.0117 -81.1528 269° West 433 498 32,000  Level Indianapolis Center
18:43 40.0092 -81.3125 269° West 435 501 32,000  Level Indianapolis Center
18:44 40.0061 -81.4708 269° West 434 499 32,000  Level Indianapolis Center
18:45 40.0025 -81.6297 268° West 434 499 32,000  Level Indianapolis Center
18:46 40.0000 -81.7811 269° West 435 501 32,000  Level Indianapolis Center
18:47 39.9964 -81.9406 268° West 439 505 32,000  Level Indianapolis Center
18:48 39.9922 -82.0983 268° West 434 499 32,000  Level Indianapolis Center
18:49 39.9886 -82.2567 268° West 434 499 32,000  Level Indianapolis Center
18:50 39.9833 -82.4400 268° West 431 496 32,000  Level Indianapolis Center
18:51 39.9794 -82.5967 268° West 429 494 32,000  Level Indianapolis Center
18:52 39.9756 -82.7525 268° West 428 493 32,000  Level Indianapolis Center
18:53 39.9706 -82.9089 268° West 429 494 32,000  Level Indianapolis Center
18:54 39.9656 -83.0636 268° West 426 490 32,000  Level Indianapolis Center
18:55 39.9631 -83.2211 269° West 432 497 32,000  Level Indianapolis Center
18:56 39.9583 -83.3750 268° West 428 493 32,000  Level Indianapolis Center
18:57 39.9525 -83.5278 267° West 430 495 32,000  Level Indianapolis Center
18:58 39.9456 -83.6786 267° West 419 482 32,000  Level Indianapolis Center
18:59 39.9278 -83.8261 261° West 415 478 32,000  Level Indianapolis Center
19:00 39.8644 -83.9781 242° Southwest 408 470 32,000  Level Indianapolis Center
19:01 39.8094 -84.1097 241° Southwest 411 473 32,000  Level Indianapolis Center
19:02 39.7539 -84.2375 241° Southwest 406 467 32,000  Level Indianapolis Center
19:03 39.6919 -84.3608 237° Southwest 404 465 32,000  Level Indianapolis Center
19:04 39.6308 -84.4856 238° Southwest 406 467 32,000  Level Indianapolis Center
19:05 39.5686 -84.6097 237° Southwest 407 468 32,000  Level Indianapolis Center
19:06 39.5078 -84.7344 238° Southwest 406 467 32,000  Level Indianapolis Center
19:07 39.4442 -84.8608 237° Southwest 412 474 32,000  Level Indianapolis Center
19:08 39.3869 -84.9783 238° Southwest 418 481 32,000  Level Indianapolis Center
19:09 39.3228 -85.1033 236° Southwest 418 481 32,000  Level Indianapolis Center
19:10 39.2458 -85.2553 237° Southwest 421 484 32,000  Level Indianapolis Center
19:11 39.1842 -85.3794 237° Southwest 414 476 32,000  Level Indianapolis Center
19:12 39.1211 -85.5031 237° Southwest 411 473 32,000  Level Indianapolis Center
19:13 39.0589 -85.6244 237° Southwest 407 468 32,000  Level Indianapolis Center
19:14 38.9958 -85.7483 237° Southwest 412 474 32,000  Level Indianapolis Center
19:15 38.9322 -85.8725 237° Southwest 415 478 32,000  Level Indianapolis Center
19:16 38.8664 -85.9989 236° Southwest 414 476 32,000  Level Indianapolis Center
19:17 38.8031 -86.1219 237° Southwest 413 475 32,000  Level Indianapolis Center
19:18 38.7386 -86.2436 236° Southwest 412 474 32,000  Level Indianapolis Center
19:19 38.6744 -86.3656 236° Southwest 412 474 32,000  Level Indianapolis Center
19:20 38.6114 -86.4886 237° Southwest 412 474 32,000  Level Indianapolis Center
19:21 38.5472 -86.6100 236° Southwest 411 473 32,000  Level Indianapolis Center
19:22 38.4831 -86.7303 236° Southwest 409 471 32,000  Level Indianapolis Center
19:23 38.4406 -86.8647 248° West 409 471 32,000  Level Indianapolis Center
19:24 38.3992 -87.0264 252° West 419 482 32,000  Level Indianapolis Center
19:25 38.3594 -87.1647 250° West 424 488 32,000  Level Indianapolis Center
19:26 38.2911 -87.2794 233° Southwest 416 479 32,000  Level Indianapolis Center
19:27 38.2186 -87.3853 229° Southwest 404 465 32,000  Level Indianapolis Center
19:28 38.1447 -87.4922 229° Southwest 402 463 32,000  Level Indianapolis Center
19:29 38.0714 -87.5981 229° Southwest 400 460 32,000  Level Indianapolis Center
19:31 37.9989 -87.7022 229° Southwest 397 457 32,000  Level Indianapolis Center
19:32 37.9269 -87.8075 229° Southwest 394 453 32,000  Level Indianapolis Center
19:33 37.8536 -87.9122 228° Southwest 395 455 32,000  Level Indianapolis Center
19:34 37.7806 -88.0161 228° Southwest 394 453 32,000  Level Indianapolis Center
19:35 37.7025 -88.1281 229° Southwest 392 451 32,000  Level Indianapolis Center
19:36 37.6219 -88.2431 229° Southwest 391 450 32,000  Level Indianapolis Center
19:37 37.5506 -88.3447 228° Southwest 387 445 32,000  Level Indianapolis Center
19:37 37.5225 -88.3933 234° Southwest 397 457 32,000  Level Memphis Center
19:38 37.4511 -88.4917 228° Southwest 392 451 32,000  Level Memphis Center
19:39 37.3797 -88.5953 229° Southwest 392 451 32,000  Level Memphis Center
19:40 37.3347 -88.6494 224° Southwest 390 449 32,000  Level Indianapolis Center
19:40 37.3144 -88.6853 235° Southwest 397 457 32,000  Level Memphis Center
19:41 37.2367 -88.7964 229° Southwest 397 457 32,000  Level Memphis Center
19:42 37.1628 -88.8967 227° Southwest 397 457 32,000  Level Memphis Center
19:43 37.1075 -88.9758 229° Southwest 392 451 32,000  Level Memphis Center
19:44 37.0275 -89.0836 227° Southwest 392 451 32,000  Level Memphis Center
19:45 36.9514 -89.1914 229° Southwest 392 451 32,000  Level Memphis Center
19:46 36.8814 -89.2933 229° Southwest 392 451 32,000  Level Memphis Center
19:47 36.8197 -89.4006 234° Southwest 392 451 32,000  Level Memphis Center
19:48 36.7581 -89.5075 234° Southwest 387 445 32,000  Level Memphis Center
19:49 36.6922 -89.6169 233° Southwest 387 445 32,000  Level Memphis Center
19:50 36.6303 -89.7233 234° Southwest 387 445 32,000  Level Memphis Center
19:51 36.5639 -89.8325 233° Southwest 392 451 32,000  Level Memphis Center
19:52 36.5019 -89.9386 234° Southwest 392 451 32,000  Level Memphis Center
19:53 36.4375 -90.0447 233° Southwest 392 451 32,000  Level Memphis Center
19:54 36.3731 -90.1481 232° Southwest 392 451 32,000  Level Memphis Center
19:55 36.3108 -90.2564 235° Southwest 392 451 32,000  Level Memphis Center
19:56 36.2419 -90.3647 232° Southwest 392 451 32,000  Level Memphis Center
19:57 36.1794 -90.4728 234° Southwest 392 451 32,000  Level Memphis Center
19:58 36.1147 -90.5781 233° Southwest 392 451 32,000  Level Memphis Center
19:59 36.0497 -90.6856 233° Southwest 392 451 32,000  Level Memphis Center
20:00 35.9828 -90.7931 232° Southwest 392 451 32,000  Level Memphis Center
20:01 35.9178 -90.8978 233° Southwest 392 451 32,000  Level Memphis Center
20:02 35.8547 -91.0050 234° Southwest 392 451 32,000  Level Memphis Center
20:03 35.7872 -91.1094 231° Southwest 387 445 32,000  Level Memphis Center
20:04 35.7219 -91.2136 232° Southwest 387 445 32,000  Level Memphis Center
20:05 35.6711 -91.3128 238° Southwest 387 445 32,000  Level Memphis Center
20:06 35.5953 -91.4267 231° Southwest 387 445 32,000  Level Memphis Center
20:07 35.5297 -91.5331 233° Southwest 392 451 32,000  Level Memphis Center
20:08 35.4700 -91.6469 237° Southwest 392 451 32,000  Level Memphis Center
20:09 35.4228 -91.7686 245° Southwest 392 451 32,000  Level Memphis Center
20:10 35.3756 -91.8900 245° Southwest 392 451 32,000  Level Memphis Center
20:11 35.3303 -92.0114 245° Southwest 397 457 32,000  Level Memphis Center
20:12 35.2847 -92.1325 245° Southwest 397 457 32,000  Level Memphis Center
20:13 35.2392 -92.2511 245° Southwest 397 457 32,000  Level Memphis Center
20:14 35.1936 -92.3719 245° Southwest 397 457 32,000  Level Memphis Center
20:15 35.1478 -92.4903 245° Southwest 397 457 32,000  Level Memphis Center
20:16 35.0978 -92.6108 243° Southwest 397 457 32,000  Level Memphis Center
20:17 35.0494 -92.7286 243° Southwest 397 457 32,000  Level Memphis Center
20:18 34.9953 -92.8414 240° Southwest 397 457 32,000  Level Memphis Center
20:19 34.9222 -92.9456 229° Southwest 397 457 32,000  Level Memphis Center
20:20 34.8511 -93.0472 230° Southwest 402 463 32,000  Level Memphis Center
20:21 34.7803 -93.1458 229° Southwest 402 463 32,000  Level Memphis Center
20:22 34.7069 -93.2472 229° Southwest 402 463 32,000  Level Memphis Center
20:23 34.6336 -93.3506 229° Southwest 402 463 32,000  Level Memphis Center
20:26 34.4617 -93.5953 230° Southwest 400 460 32,000  Level Fort Worth Center
20:27 34.3875 -93.6992 229° Southwest 400 460 32,000  Level Fort Worth Center
20:28 34.3178 -93.8053 232° Southwest 405 466 32,000  Level Fort Worth Center
20:29 34.2689 -93.9281 244° Southwest 410 472 32,000  Level Fort Worth Center
20:30 34.2139 -94.0531 242° Southwest 415 478 32,000  Level Fort Worth Center
20:31 34.1586 -94.1683 240° Southwest 415 478 32,000  Level Fort Worth Center
20:32 34.1031 -94.2883 241° Southwest 415 478 32,000  Level Fort Worth Center
20:33 34.0458 -94.4131 241° Southwest 415 478 32,000  Level Fort Worth Center
20:34 33.9839 -94.5306 238° Southwest 420 483 32,000  Level Fort Worth Center
20:35 33.9217 -94.6475 237° Southwest 420 483 32,000  Level Fort Worth Center
20:36 33.8575 -94.7672 237° Southwest 420 483 32,000  Level Fort Worth Center
20:37 33.7867 -94.8744 232° Southwest 420 483 32,000  Level Fort Worth Center
20:38 33.7008 -94.9692 223° Southwest 420 483 32,000  Level Fort Worth Center
20:39 33.6172 -95.0664 224° Southwest 420 483 32,000  Level Fort Worth Center
20:40 33.5333 -95.1658 225° Southwest 426 490 32,000  Level Fort Worth Center
20:41 33.4433 -95.2578 220° Southwest 426 490 32,000  Level Fort Worth Center
20:42 33.3425 -95.3422 215° Southwest 438 504 32,000  Level Fort Worth Center
20:43 33.2478 -95.4264 217° Southwest 438 504 32,000  Level Fort Worth Center
20:44 33.1531 -95.5128 217° Southwest 433 498 32,000  Level Fort Worth Center
20:45 33.0583 -95.5992 217° Southwest 428 493 32,000  Level Fort Worth Center
20:46 32.9656 -95.6828 217° Southwest 428 493 32,000  Level Fort Worth Center
20:47 32.8706 -95.7661 216° Southwest 428 493 32,000  Level Fort Worth Center
20:48 32.7736 -95.8544 217° Southwest 433 498 32,000  Level Fort Worth Center
20:49 32.6744 -95.9400 216° Southwest 433 498 32,000  Level Fort Worth Center
20:50 32.5794 -96.0253 217° Southwest 433 498 32,000  Level Fort Worth Center
20:51 32.4822 -96.1106 217° Southwest 433 498 32,000  Level Fort Worth Center
20:52 32.3828 -96.1956 216° Southwest 433 498 32,000  Level Fort Worth Center
20:53 32.2833 -96.2831 217° Southwest 438 504 32,000  Level Fort Worth Center
20:54 32.1861 -96.3700 217° Southwest 438 504 32,000  Level Fort Worth Center
20:55 32.0867 -96.4569 217° Southwest 444 511 32,000  Level Fort Worth Center
20:56 31.9850 -96.5414 215° Southwest 449 517 32,000  Level Fort Worth Center
20:57 31.8936 -96.6278 219° Southwest 449 517 32,000  Level Fort Worth Center
20:57 31.8594 -96.6536 213° Southwest 442 509 32,000  Level Houston Center
20:58 31.7592 -96.7403 216° Southwest 443 510 32,000 -720 Level Houston Center
20:59 31.6586 -96.8258 216° Southwest 441 507 30,600 -1,860 Descending Houston Center
21:00 31.5597 -96.9106 216° Southwest 438 504 28,300 -2,280 Descending Houston Center
21:01 31.4617 -96.9944 216° Southwest 432 497 26,000 -2,280 Descending Houston Center
21:02 31.3667 -97.0758 216° Southwest 422 486 23,700 -2,400 Descending Houston Center
21:03 31.2714 -97.1461 212° Southwest 407 468 21,200 -2,160 Descending Houston Center
21:04 31.1675 -97.1956 202° Southwest 398 458 19,400 -1,860 Descending Houston Center
21:05 31.0667 -97.2439 202° Southwest 392 451 17,500 -1,860 Descending Houston Center
21:06 30.9647 -97.2922 202° Southwest 385 443 15,700 -1,800 Descending Houston Center
21:07 30.8617 -97.3408 202° Southwest 372 428 13,900 -1,380 Descending Houston Center
21:08 30.7719 -97.3861 203° Southwest 351 404 12,900 -1,560 Descending Houston Center
21:09 30.6897 -97.4400 209° Southwest 341 392 10,800 -1,560 Descending Houston Center
21:10 30.6161 -97.4844 207° Southwest 305 351 9,800 -1,380 Descending Houston Center
21:11 30.5456 -97.5281 208° Southwest 288 331 8,000 -1,860 Descending Houston Center
21:12 30.4775 -97.5697 208° Southwest 279 321 6,100 -1,860 Descending Houston Center
21:13 30.4172 -97.6069 208° Southwest 251 289 4,300 -1,560 Descending Houston Center
21:14 30.3639 -97.6444 211° Southwest 231 266 3,000 -660 Descending Houston Center
21:15 30.3206 -97.6747 211° Southwest 191 220 3,000 -660 Level Houston Center
21:16 30.2706 -97.6822 187° South 163 188 1,700 -1,080 Descending Houston Center
21:17 30.2325 -97.6786 175° South 148 170 900 -540 Descending Houston Center
21:18 30.1956 -97.6756 176° South 140 161 700 -240 Descending Houston Center
21:20 30.1945 -97.6699 221° Southwest  Level Estimated
21:27 30.1945 -97.6699 221° Southwest  Level Estimated